Location: Casco Millpond
(44.5581°N, 87.6111°W)
Time: 22:57:35
(UTC+00:00)

Spot 4 Rocket - Pass Details

Date: 16 January 2026
Orbit: 768 x 774 km, 98.8° (Epoch: 13 February)

Event Time Altitude Azimuth Distance (km) Brightness Sun altitude
Rises 23:44:09 0° 145° (SE) 3,239 7.1 -11.6°
Reaches altitude 10° 23:46:32 10° 139° (SE) 2,316 6.3 -12.0°
Maximum altitude 23:51:21 44° 69° (ENE) 1,065 4.3 -12.9°
Drops below altitude 10° 23:56:12 10° 358° (N) 2,330 6.4 -13.7°
Sets 23:58:36 0° 352° (N) 3,261 7.2 -14.1°
